TimeCDT,TemperatureF,Dew PointF,Humidity,Sea Level PressureIn,VisibilityMPH,Wind Direction,Wind SpeedMPH,Gust SpeedMPH,PrecipitationIn,Events,Conditions,WindDirDegrees,DateUTC
12:51 AM,84.0,64.0,51,29.81,10.0,South,8.1,-,N/A,,Clear,180,2013-06-26 05:51:00
1:51 AM,84.9,62.1,46,29.81,10.0,South,16.1,25.3,N/A,,Clear,180,2013-06-26 06:51:00
2:51 AM,82.9,64.0,53,29.81,10.0,South,12.7,-,N/A,,Clear,180,2013-06-26 07:51:00
3:51 AM,82.0,64.9,56,29.81,10.0,South,11.5,25.3,N/A,,Clear,180,2013-06-26 08:51:00
4:51 AM,80.1,66.0,62,29.82,10.0,South,11.5,-,N/A,,Clear,180,2013-06-26 09:51:00
5:51 AM,79.0,66.9,66,29.83,10.0,South,12.7,20.7,N/A,,Clear,180,2013-06-26 10:51:00
6:51 AM,77.0,66.9,71,29.86,10.0,South,9.2,-,N/A,,Clear,190,2013-06-26 11:51:00
7:51 AM,77.0,68.0,74,29.86,10.0,South,9.2,-,N/A,,Clear,190,2013-06-26 12:51:00
8:51 AM,80.1,69.1,69,29.87,10.0,South,18.4,23.0,N/A,,Clear,190,2013-06-26 13:51:00
9:51 AM,82.0,70.0,67,29.88,10.0,South,11.5,19.6,N/A,,Clear,190,2013-06-26 14:51:00
10:51 AM,87.1,69.1,55,29.88,10.0,South,12.7,-,N/A,,Clear,190,2013-06-26 15:51:00
11:51 AM,90.0,69.1,50,29.87,10.0,South,16.1,20.7,N/A,,Clear,170,2013-06-26 16:51:00
12:51 PM,93.9,68.0,43,29.86,10.0,South,11.5,20.7,N/A,,Clear,190,2013-06-26 17:51:00
1:51 PM,97.0,68.0,39,29.84,10.0,South,11.5,21.9,N/A,,Clear,180,2013-06-26 18:51:00
2:51 PM,100.0,66.0,33,29.82,10.0,SSE,11.5,18.4,N/A,,Clear,160,2013-06-26 19:51:00
3:51 PM,102.0,64.0,29,29.80,10.0,SSE,10.4,16.1,N/A,,Clear,150,2013-06-26 20:51:00
4:51 PM,102.9,62.1,26,29.78,10.0,SSW,12.7,18.4,N/A,,Clear,200,2013-06-26 21:51:00
5:51 PM,104.0,61.0,24,29.78,10.0,SSE,11.5,18.4,N/A,,Clear,150,2013-06-26 22:51:00
6:51 PM,102.0,61.0,26,29.78,10.0,SSE,10.4,20.7,N/A,,Clear,160,2013-06-26 23:51:00
7:51 PM,99.0,61.0,28,29.79,10.0,SSE,12.7,23.0,N/A,,Clear,150,2013-06-27 00:51:00
8:51 PM,95.0,61.0,32,29.81,10.0,SSE,12.7,19.6,N/A,,Clear,160,2013-06-27 01:51:00
9:51 PM,91.9,62.1,37,29.83,10.0,SSE,10.4,-,N/A,,Clear,160,2013-06-27 02:51:00
10:51 PM,89.1,62.1,40,29.86,10.0,South,8.1,-,N/A,,Clear,180,2013-06-27 03:51:00
11:51 PM,86.0,63.0,46,29.87,10.0,South,4.6,-,N/A,,Clear,170,2013-06-27 04:51:00